Theta_e
305 305 306 306 305 305 305 305 305 305 305 304 304 304 303 302 303 304 305 307 305 307 308 317 317 312 313 317 317 317 316 317 318 314 315 315 314 314 315 316 317 316 317 316 318 318 320
305 305 305 305 305 304 304 303 304 305 303 303 303 303 302 302 303 302 302 303 308 306 307 313 317 313 312 318 316 316 315 315 318 314 315 316 314 314 315 316 316 317 317 316 318 317 318
304 304 304 304 304 304 303 302 303 303 303 303 303 303 302 301 301 301 302 303 305 307 306 308 317 313 315 315 315 315 318 315 317 314 316 315 313 314 315 316 316 316 316 317 317 317 317
304 304 304 303 303 303 303 303 301 302 303 303 304 303 301 301 300 301 301 301 302 305 307 308 316 314 315 314 316 316 322 322 320 317 317 316 314 314 314 316 316 316 316 317 317 317 317
303 304 304 303 302 303 304 302 301 302 303 303 303 302 301 301 299 298 299 300 302 303 304 307 312 314 315 313 315 315 319 318 318 316 315 315 314 315 316 317 315 315 314 316 318 318 316
303 303 304 303 302 302 303 302 302 303 303 302 302 301 300 298 297 296 297 298 302 305 306 307 311 314 314 314 314 314 315 317 315 315 314 314 314 314 315 317 317 315 313 315 318 317 316
301 303 302 303 303 301 302 302 301 302 302 302 302 301 298 296 297 300 300 302 301 304 304 311 311 316 315 314 314 314 316 315 314 314 315 314 314 314 315 316 317 317 313 315 317 317 317
301 302 302 302 303 301 301 301 300 301 301 301 301 300 299 297 298 298 302 301 300 299 299 302 309 311 314 313 313 315 315 315 315 315 314 315 316 314 316 315 316 317 317 315 317 317 317
300 302 301 301 302 300 300 301 301 301 301 299 298 298 298 299 300 302 303 302 300 299 300 302 306 311 313 312 313 314 314 315 315 316 315 317 316 316 316 316 316 318 319 317 321 317 316
298 299 300 301 300 300 300 300 300 300 300 300 299 298 298 297 303 302 303 302 300 300 304 307 311 310 310 313 313 314 313 315 316 317 316 317 317 316 316 317 316 319 319 320 318 318 319
299 299 298 298 300 300 300 300 300 300 299 299 299 299 300 300 301 303 302 301 301 301 307 311 312 312 313 314 313 314 313 314 315 317 318 318 317 317 318 317 317 319 318 320 319 319 321
298 298 299 299 298 298 299 300 299 299 300 299 299 299 301 301 301 302 302 300 301 305 307 308 312 313 314 315 314 314 313 314 315 316 317 317 313 316 317 317 317 318 319 320 321 320 320
298 298 298 298 299 297 297 298 298 300 299 298 296 298 300 301 302 303 301 302 305 303 305 306 304 311 315 315 314 313 314 314 314 316 318 316 314 313 314 317 317 317 318 320 320 318 323
297 298 297 298 298 298 297 297 297 297 298 297 295 299 302 301 301 302 301 302 303 305 304 304 305 303 307 315 313 314 314 315 313 314 317 317 315 313 313 317 317 317 318 321 318 321 319
296 297 297 297 299 297 297 298 298 297 297 295 297 301 302 303 302 301 302 302 303 304 304 304 304 306 314 314 313 314 314 314 313 313 316 316 316 313 313 315 316 316 319 318 316 314 317
295 296 295 297 297 297 297 297 297 297 297 297 299 300 302 300 301 301 302 303 303 303 303 304 304 304 306 315 315 314 314 314 314 313 313 315 315 313 313 313 314 315 315 318 315 315 318
294 294 295 295 296 296 297 298 297 297 296 297 300 300 302 300 301 300 302 303 303 303 303 304 305 304 305 307 312 315 314 313 313 313 313 313 315 314 312 313 315 313 315 315 315 318 316
294 293 293 294 295 295 295 296 297 298 297 295 299 300 300 300 302 300 302 301 301 303 302 304 304 305 305 306 307 312 314 313 313 313 313 313 314 314 313 312 313 312 314 314 318 315 315
293 293 293 293 293 294 294 294 296 297 298 297 299 299 300 300 300 299 300 300 301 301 303 304 305 305 306 307 308 309 314 313 313 313 313 312 312 314 314 313 312 313 313 314 313 313 312
293 293 293 293 293 293 294 294 295 295 297 298 298 298 300 300 299 299 299 300 300 301 301 302 304 304 307 309 307 308 310 314 313 313 314 313 312 313 315 314 313 314 313 312 313 312 312
293 293 293 292 293 292 292 293 294 294 297 297 297 297 297 297 297 298 298 299 301 301 302 302 303 305 305 307 308 308 310 310 313 313 315 312 312 311 312 312 313 313 314 313 313 314 313
293 293 292 292 292 292 292 292 293 293 294 297 297 298 296 296 297 298 299 301 299 298 299 299 299 300 301 301 306 307 307 313 313 312 313 313 310 310 310 311 312 313 313 314 313 313 313
292 292 292 292 292 292 292 292 292 293 293 295 295 296 296 296 297 298 299 299 298 299 300 300 300 300 300 302 302 306 305 307 312 311 312 313 310 306 311 312 310 309 313 313 313 312 312
292 292 292 292 291 292 292 291 291 292 293 293 294 295 296 296 297 297 296 298 298 298 299 299 299 299 301 302 304 306 308 311 311 310 311 311 311 310 306 306 308 310 310 312 313 313 312
292 292 292 291 291 291 291 291 291 292 293 293 293 295 295 295 295 296 295 297 297 298 298 298 299 299 300 301 305 309 310 309 310 310 311 311 311 314 313 313 311 310 308 311 312 312 310
292 292 292 291 291 291 291 291 291 291 291 293 292 295 294 295 295 295 297 296 298 296 296 297 296 299 301 305 307 312 313 313 312 310 308 311 311 312 312 315 314 311 309 310 310 313 309
292 292 291 291 291 291 291 291 291 291 291 291 292 293 295 294 294 295 295 296 295 295 296 295 295 297 305 307 311 311 308 311 312 311 311 312 311 313 314 315 313 311 308 310 309 309 308
292 291 290 289 290 290 290 291 290 290 290 291 292 294 294 294 293 295 295 295 294 294 294 294 296 298 302 307 309 309 307 307 309 309 310 312 314 314 313 315 314 305 306 308 304 304 307
291 290 288 288 290 290 290 290 290 288 287 291 293 294 294 293 294 294 295 295 295 293 292 292 294 295 298 300 305 307 308 303 309 308 307 312 311 312 312 310 300 297 299 300 301 303 305
Wind_Speed
30 31 30 30 30 30 26 21 15 14 14 13 13 13 14 14 15 14 15 19 16 22 21 12 12 12 10 10 16 13 2 11 26 24 25 24 23 20 8 13 12 8 5 10 6 3 4
31 32 31 30 29 28 26 21 17 13 13 11 13 13 13 13 14 16 16 19 17 20 18 15 14 14 15 15 10 17 20 6 26 29 29 24 15 26 6 12 12 13 14 7 9 8 2
33 31 32 30 29 27 26 23 19 16 12 10 10 12 14 13 16 18 20 19 22 17 28 25 16 16 17 21 7 8 8 10 23 29 26 28 9 21 9 7 15 12 6 6 7 13 5
31 32 32 31 29 27 25 23 19 15 11 10 12 12 17 15 15 17 19 21 24 27 25 27 13 15 13 15 20 10 7 15 17 24 16 19 17 16 16 4 5 5 6 6 9 12 5
33 32 32 32 30 28 26 23 18 15 11 10 12 11 13 14 15 17 19 21 22 24 23 27 24 17 11 17 21 23 13 15 18 19 16 14 14 8 8 5 4 8 6 9 7 13 6
33 33 33 32 31 28 26 22 19 14 13 13 13 13 14 15 16 17 20 27 17 18 19 19 29 16 13 19 18 20 23 14 16 19 10 9 9 5 5 7 10 7 7 9 9 9 6
33 32 33 33 31 29 26 23 19 17 15 14 14 14 16 15 15 16 20 19 12 8 22 10 11 11 2 28 19 22 25 21 15 19 9 17 6 16 13 13 10 8 9 10 8 10 9
33 33 32 32 32 30 27 23 21 18 17 16 16 15 16 15 15 14 10 6 6 7 13 27 30 21 20 29 14 22 32 17 15 10 10 6 15 10 9 10 12 11 8 11 7 9 6
31 33 33 32 32 31 28 24 22 20 18 18 17 15 15 14 14 9 4 7 14 12 6 13 24 12 12 19 14 31 36 17 14 13 19 9 8 12 14 10 16 9 8 8 7 6 3
31 32 32 33 31 30 32 28 24 22 19 18 17 16 15 15 7 12 7 6 12 12 4 5 7 12 22 10 8 30 39 25 9 17 15 10 14 19 14 15 11 10 6 1 14 7 4
32 35 33 29 31 30 29 28 27 25 20 19 18 16 16 13 12 6 7 8 11 4 4 10 10 9 18 16 17 21 38 27 17 12 11 9 14 11 17 13 10 5 6 7 6 8 3
34 34 33 29 29 28 29 27 28 24 23 20 19 19 18 10 10 10 9 10 6 2 5 6 7 8 14 21 8 29 24 22 9 9 16 8 1 9 12 8 9 5 8 6 3 4 0
34 37 35 32 30 31 29 28 27 27 26 25 22 21 18 11 9 8 10 4 4 3 1 7 8 5 16 18 14 12 18 18 11 15 17 6 4 3 1 7 6 9 8 2 1 0 5
34 35 38 36 31 30 32 29 30 29 26 27 24 16 11 9 8 6 3 2 4 4 4 1 2 12 10 18 22 13 20 17 16 9 12 10 5 8 4 13 9 12 12 5 6 5 5
34 33 35 38 38 34 30 29 29 28 29 26 23 14 6 4 5 4 2 2 3 7 3 6 9 7 3 14 13 16 17 23 17 12 8 12 6 11 11 2 12 8 13 4 4 2 4
35 34 31 35 36 37 36 34 31 29 29 24 20 14 3 8 5 5 1 5 2 5 3 4 4 4 6 15 10 15 18 17 21 16 14 8 5 5 4 2 3 6 6 7 1 7 5
35 33 35 34 34 33 37 36 36 33 29 25 13 7 4 9 7 0 2 5 12 16 14 3 4 4 6 5 9 10 13 16 24 21 16 5 5 6 7 9 13 3 7 4 6 5 6
37 36 35 35 36 35 33 34 35 36 31 25 10 3 12 11 2 2 3 11 11 11 15 3 6 9 6 3 6 6 18 21 31 21 21 14 2 6 9 3 2 8 10 10 9 7 3
36 37 37 37 35 35 35 34 34 33 32 21 13 4 8 8 4 4 9 12 13 12 11 3 7 8 5 3 3 8 13 17 30 23 21 12 5 5 5 1 2 11 14 17 6 4 10
36 37 37 37 37 35 34 34 34 28 23 13 5 3 4 4 4 5 10 8 11 15 13 11 12 11 7 5 5 7 8 7 11 24 29 17 5 7 11 9 7 5 11 7 11 3 4
36 37 37 38 38 36 35 33 34 29 22 11 8 3 2 4 6 11 10 5 9 8 8 12 5 8 10 7 7 11 17 17 6 3 14 9 15 9 10 8 12 13 14 16 11 21 11
36 36 37 37 37 37 37 34 31 30 22 11 6 5 5 9 9 6 11 4 12 6 3 8 11 18 18 14 11 14 8 8 6 9 1 5 2 8 8 10 13 16 20 17 18 20 19
35 36 37 38 38 37 37 35 30 28 23 11 17 16 6 6 2 5 4 9 19 17 8 9 21 19 20 18 20 20 18 25 13 9 13 11 4 3 13 2 6 3 21 20 17 17 16
34 35 36 37 37 37 37 35 30 26 20 17 18 19 4 4 4 6 15 15 17 20 21 25 25 17 9 13 17 18 23 12 6 5 5 5 7 3 3 4 4 7 11 12 21 21 19
34 34 35 36 37 37 37 36 31 25 21 19 16 13 4 4 9 11 15 12 24 25 17 20 23 23 26 14 4 4 3 2 2 5 7 6 4 1 4 7 2 2 5 15 12 13 9
34 35 35 36 36 37 37 36 31 25 20 19 13 10 12 7 4 21 11 17 10 9 8 8 26 14 15 4 4 5 3 4 4 5 2 4 9 7 4 6 10 4 5 8 5 13 10
35 36 36 36 36 37 38 37 31 25 19 15 10 12 12 7 11 13 7 6 9 7 5 11 16 10 9 3 3 2 3 7 6 7 6 5 4 12 9 4 5 5 3 10 9 7 3
37 38 39 39 38 38 39 37 30 23 17 12 10 9 13 6 22 8 14 16 12 6 4 11 11 3 3 2 3 3 3 5 4 6 7 8 7 5 4 5 9 8 3 8 2 3 2
38 40 42 42 41 41 40 36 29 19 15 10 8 11 15 13 14 24 15 9 14 10 10 6 5 7 6 4 3 3 1 2 4 4 1 4 4 6 6 4 4 7 5 3 2 3 4
Wind_Direction
357 355 354 351 350 348 348 341 325 303 295 286 289 298 290 293 304 312 303 310 292 289 270 253 244 245 234 226 235 275 220 218 199 192 187 192 198 195 222 195 226 222 227 202 99 131 289
1 358 357 352 350 349 351 348 338 319 306 291 292 301 298 299 303 308 308 312 317 276 283 267 225 233 224 241 255 257 266 273 197 190 191 193 205 197 266 233 205 195 243 146 139 160 147
4 357 357 356 353 350 347 346 337 326 315 302 302 315 308 303 302 309 313 314 305 297 270 259 212 223 232 219 247 255 254 245 197 190 191 188 185 196 225 255 206 256 180 147 175 162 158
6 2 0 358 356 354 353 347 345 339 328 312 315 299 311 312 312 313 315 316 314 307 276 253 222 212 239 240 219 262 179 169 184 187 191 202 221 250 232 308 129 185 160 162 186 164 155
9 5 4 1 360 359 355 356 353 345 333 319 316 303 308 317 318 318 318 311 305 312 290 248 262 187 226 219 223 217 181 190 183 171 203 186 196 233 183 189 187 211 187 191 145 173 133
9 9 6 4 1 1 1 2 2 355 343 341 329 325 320 317 314 316 315 321 314 299 291 231 249 192 217 203 204 209 209 187 164 160 170 182 184 200 189 188 197 183 230 194 153 187 163
10 8 7 6 5 3 2 2 358 353 345 340 333 332 327 327 325 326 332 352 358 345 328 239 294 237 84 203 191 193 186 175 174 164 167 192 188 199 192 207 223 196 206 195 186 177 167
9 9 9 7 7 4 4 1 359 353 345 342 337 334 332 331 325 329 351 37 52 332 303 299 260 251 259 171 165 183 171 161 186 186 183 163 215 200 209 210 233 243 217 225 26 141 145
5 8 9 10 7 8 5 3 359 356 351 350 343 339 337 339 327 342 347 355 347 352 279 290 232 238 241 190 190 180 175 181 181 186 198 184 164 202 203 220 219 229 242 185 143 149 282
2 0 2 6 9 6 7 4 2 0 356 351 348 344 336 339 342 338 313 335 344 334 291 250 185 234 246 215 226 187 183 165 183 196 191 224 212 192 206 220 199 211 228 356 129 123 187
7 7 1 356 360 2 3 1 2 360 354 350 345 340 335 341 323 343 314 310 319 285 287 152 154 167 219 217 139 177 192 210 179 172 183 196 188 198 209 199 187 230 129 124 146 163 107
7 4 360 357 357 352 354 357 358 356 351 344 336 332 324 329 319 304 286 310 310 212 256 307 127 178 180 218 247 156 181 215 194 189 197 165 112 180 193 189 167 140 106 79 95 113 252
5 5 5 5 0 355 352 350 348 350 346 344 334 329 319 301 278 301 313 317 266 222 212 343 353 276 196 193 227 171 180 197 183 173 181 139 168 86 97 160 172 162 152 122 46 91 213
4 4 6 5 2 359 357 359 353 343 339 339 337 341 337 297 266 274 256 259 256 329 39 301 30 303 264 179 208 208 176 183 226 173 164 167 180 158 196 185 172 184 180 150 169 170 207
4 1 2 2 11 5 359 354 351 350 349 346 346 359 337 6 340 216 170 233 286 1 354 333 304 326 248 194 177 209 190 186 199 196 156 180 198 153 166 215 152 208 215 161 108 2 133
3 3 359 360 1 6 6 4 359 356 351 354 357 346 347 344 360 200 215 263 283 311 336 304 320 133 306 182 193 200 188 198 192 212 236 154 120 177 120 72 268 198 155 204 231 157 204
5 0 1 0 358 358 1 4 5 2 355 356 7 353 352 344 330 135 289 303 326 323 322 239 294 257 242 267 272 193 200 180 197 199 232 227 122 169 131 216 175 153 204 199 137 164 170
7 5 2 358 359 356 354 354 359 3 358 0 3 350 329 351 329 19 323 312 309 298 313 283 296 254 270 288 291 232 211 208 183 186 210 221 141 163 192 47 214 196 190 195 193 207 187
6 5 4 2 357 356 356 355 356 358 2 352 345 321 318 12 39 341 315 309 299 298 303 238 223 219 271 203 281 284 222 230 186 188 197 193 216 113 151 184 189 207 212 206 232 137 200
4 3 2 1 359 356 354 355 357 358 11 17 0 353 351 24 31 332 324 314 331 325 303 289 292 280 272 308 220 292 308 235 244 198 199 185 190 185 193 194 122 190 194 211 207 230 177
1 2 1 360 359 358 355 353 355 355 14 23 15 23 11 324 321 318 306 274 301 337 343 326 312 322 283 264 261 258 253 262 174 263 202 184 208 215 199 194 175 188 193 198 194 218 201
360 359 359 358 357 357 355 354 354 360 360 32 19 346 335 289 293 284 295 358 311 308 276 281 288 287 289 271 276 278 333 265 182 207 304 220 257 217 220 202 195 192 201 200 207 221 218
357 357 356 356 355 355 355 354 352 355 6 353 336 331 292 275 258 301 297 331 306 304 298 288 300 287 283 289 268 264 269 267 243 174 195 210 144 105 227 193 98 8 192 199 208 223 208
353 354 354 353 353 353 353 352 350 349 354 341 327 327 294 286 307 307 308 313 306 298 292 294 291 266 250 253 307 260 234 267 87 71 89 120 166 77 196 91 158 235 177 198 205 215 216
351 351 352 352 352 352 350 350 347 344 343 339 335 331 309 286 304 304 329 311 305 301 298 296 302 291 241 271 246 234 185 109 182 155 160 164 103 94 158 213 287 72 184 189 184 237 204
352 350 351 350 350 350 348 347 345 341 337 333 343 346 331 297 247 333 314 302 311 321 312 299 319 329 173 220 209 213 186 136 147 125 5 162 187 191 145 186 223 232 179 170 96 239 195
353 351 350 349 350 349 346 344 342 338 335 330 331 332 320 272 290 321 306 310 312 303 280 306 337 331 209 224 216 182 215 141 163 152 155 167 172 198 200 186 265 239 228 132 142 235 254
352 351 351 353 351 348 345 343 340 337 336 332 336 333 334 275 298 300 313 305 312 303 301 307 323 22 291 247 202 223 229 213 123 155 170 167 168 183 184 192 243 162 65 161 206 341 334
353 353 355 355 351 348 347 345 341 340 340 338 336 334 320 294 273 307 307 316 329 314 297 303 277 298 333 321 337 312 323 359 164 175 307 163 185 171 184 187 25 30 54 100 126 140 89